Aeroporto :
LOGIN :

Iscrizione | Disclaimer

   EN    FR    IT 

 










Sommario :    VFR   VFR Marginale   IFR   IFR Intensivo   IFR Molto Intensivo
Visibilità : 
Base nubi : 
>= 8 km
>= 3000ft
5 / 8 km
1000 / 3000 ft
1500m / 5 km
500 / 1000 ft
800 / 1500m
200 / 500 ft
< 800m
< 200 ft
Simboli :   Temporali  Nebbia  Neve Forte  Precipitazioni Forti  Vento > 20 kt
SIGMETs :   Varie  Temporali  Ghiacco  Turbolenza  Onda orograficha  Ceneri Vulcaniche







- Altitudine del aeroporto : 22 ft
- Codice IATA : TUN


DTTA - Tunis Carthage

ULTIMO METAR :
  • 180900Z VRB04KT 9999 FEW026 26/16 Q1016

METARs OBSOLETI :
  • 180830Z VRB05KT 9999 FEW026 26/16 Q1016
  • 180800Z 31004KT 260V030 9999 FEW026 24/14 Q1016
  • 180700Z 30005KT 240V340 CAVOK 23/14 Q1016
  • 180630Z 29006KT 9999 FEW040 22/14 Q1015

TAF TAF DTTA
Valido dal 18 a 06 ore il 19 a 06 ore UTC


180500Z 1806/1906 29004KT 9999 FEW033
BECMG 1808/1810 02010KT
TEMPO 1812/1816 03015KT
BECMG 1819/1821 VRB03KT
Nessun NOTAM noto per questo aeroporto.



MetMap, La meteo Aeronautica in un colpo d'occhio ! - Copyright ORBIFLY Dicembre 2007 - Disclaimer

ORBIFLY MET'MAP TEAM :

Programmazione e sviluppo : Alexandra Zaïnal
Concezione e sviluppo : Baudouin d'Aumeries
Co-Programmazione e sviluppo : Marc-Olivier Méhu
Supporto tecnico e logistico : Manuel Goepfert
Aiuto per la traduzione : Arnaldo La Scala

Contatto : metmap@orbifly.com




FONTI E CREDITI :

   NOAA